Location: Baggett Branch
(32.6074°N, 97.0167°W)
Time: 10:29:03
(UTC+00:00)

USA 215 - Pass Details

Date: 10 February 2026
Orbit: 1098 x 1109 km, 123.0° (Epoch: 10 January)

Event Time Altitude Azimuth Distance (km) Brightness Sun altitude
Rises 12:06:43 0° 118° (ESE) 3,919 7.5 -15.0°
Reaches altitude 10° 12:09:16 10° 113° (ESE) 2,964 6.8 -14.5°
Maximum altitude 12:15:31 49° 41° (NE) 1,394 4.0 -13.2°
Drops below altitude 10° 12:21:47 10° 329° (NNW) 2,974 5.2 -11.9°
Enters shadow 12:23:56 - 324° (NW) 3,781 5.7 -11.4°
